RYR612 EKCH-EGSS

Flight info

Callsign RYR612
Flight time N/A
Altitude 32000
Route LANGO DCT KESUR DCT LONAM DCT BINBO DCT AKOKO N866 KUBAX Z150 MEGEL
Aircraft B738/M-SDE2E3FGHIRWXY/LB1

Departure

Time 2026-05-06 10:04
Airport Copenhagen Kastrup Airport (EKCH)

Arrival

Time N/A
Airport London Stansted Airport (EGSS)
Time Latitude Longitude Altitude Speed Heading
2026-05-06 09:33 55.62519 12.65572 27 ft 0 kts 23°
2026-05-06 09:50 55.62517 12.65570 24 ft 2 kts 23°
2026-05-06 09:51 55.62493 12.65552 26 ft 4 kts 23°
2026-05-06 09:51 55.62472 12.65537 28 ft 4 kts
2026-05-06 09:51 55.62452 12.65547 27 ft 4 kts 304°
2026-05-06 09:51 55.62444 12.65588 25 ft 4 kts 269°
2026-05-06 09:52 55.62445 12.65636 27 ft 4 kts 269°
2026-05-06 09:52 55.62445 12.65683 27 ft 4 kts 269°
2026-05-06 09:52 55.62446 12.65731 27 ft 4 kts 269°
2026-05-06 09:52 55.62446 12.65779 27 ft 4 kts 269°
2026-05-06 09:53 55.62447 12.65827 26 ft 4 kts 269°
2026-05-06 09:53 55.62447 12.65848 23 ft 0 kts 269°
2026-05-06 09:55 55.62447 12.65843 23 ft 3 kts 269°
2026-05-06 09:55 55.62445 12.65733 23 ft 13 kts 268°
2026-05-06 09:56 55.62444 12.65574 23 ft 13 kts 269°
2026-05-06 09:56 55.62442 12.65418 23 ft 13 kts 269°
2026-05-06 09:56 55.62397 12.65327 23 ft 11 kts 180°
2026-05-06 09:56 55.62330 12.65333 23 ft 9 kts 179°
2026-05-06 09:57 55.62297 12.65284 24 ft 0 kts 260°
2026-05-06 09:58 55.62297 12.65282 24 ft 2 kts 260°
2026-05-06 09:58 55.62282 12.65217 25 ft 7 kts 225°
2026-05-06 09:58 55.62216 12.65180 23 ft 16 kts 199°
2026-05-06 09:58 55.62107 12.65061 23 ft 19 kts 213°
2026-05-06 09:59 55.61994 12.64930 23 ft 21 kts 213°
2026-05-06 09:59 55.61870 12.64787 23 ft 21 kts 212°
2026-05-06 09:59 55.61747 12.64652 24 ft 20 kts 212°
2026-05-06 09:59 55.61632 12.64513 24 ft 20 kts 213°
2026-05-06 10:00 55.61518 12.64384 23 ft 19 kts 213°
2026-05-06 10:00 55.61408 12.64257 23 ft 19 kts 213°
2026-05-06 10:00 55.61299 12.64133 23 ft 19 kts 214°
2026-05-06 10:00 55.61188 12.64004 23 ft 20 kts 213°
2026-05-06 10:01 55.61065 12.63861 23 ft 21 kts 213°
2026-05-06 10:01 55.60943 12.63721 23 ft 21 kts 213°
2026-05-06 10:01 55.60824 12.63585 24 ft 20 kts 213°
2026-05-06 10:01 55.60710 12.63453 24 ft 19 kts 213°
2026-05-06 10:02 55.60605 12.63312 23 ft 19 kts 221°
2026-05-06 10:02 55.60508 12.63163 23 ft 18 kts 221°
2026-05-06 10:02 55.60407 12.63148 23 ft 15 kts 142°
2026-05-06 10:02 55.60345 12.63282 28 ft 14 kts 126°
2026-05-06 10:03 55.60366 12.63388 26 ft 10 kts 39°
2026-05-06 10:03 55.60474 12.63553 27 ft 46 kts 41°
2026-05-06 10:03 55.60892 12.64199 27 ft 112 kts 41°
2026-05-06 10:03 55.61615 12.65315 107 ft 156 kts 40°
2026-05-06 10:04 55.62451 12.66553 793 ft 160 kts 39°
2026-05-06 10:04 55.63317 12.67826 1562 ft 161 kts 40°
2026-05-06 10:04 55.64188 12.69073 2126 ft 166 kts 41°
2026-05-06 10:04 55.65117 12.70462 2400 ft 185 kts 44°
2026-05-06 10:05 55.66125 12.72074 2555 ft 204 kts 43°
2026-05-06 10:05 55.67231 12.73805 2733 ft 220 kts 43°
2026-05-06 10:05 55.68418 12.75618 2983 ft 233 kts 42°
2026-05-06 10:05 55.69698 12.77560 3260 ft 248 kts 43°
2026-05-06 10:06 55.70725 12.80001 3843 ft 250 kts 70°
2026-05-06 10:06 55.70931 12.83022 4500 ft 251 kts 98°
2026-05-06 10:06 55.70262 12.85873 5136 ft 256 kts 126°
2026-05-06 10:06 55.68864 12.87868 5692 ft 266 kts 154°
2026-05-06 10:07 55.67038 12.88580 6311 ft 272 kts 174°
2026-05-06 10:07 55.65135 12.88545 6904 ft 279 kts 189°
2026-05-06 10:07 55.63357 12.87153 7531 ft 283 kts 218°
2026-05-06 10:07 55.62093 12.84505 8179 ft 285 kts 240°
2026-05-06 10:08 55.61182 12.81388 8904 ft 285 kts 244°
2026-05-06 10:08 55.60386 12.78181 9687 ft 284 kts 251°
2026-05-06 10:08 55.59827 12.74818 10329 ft 289 kts 255°
2026-05-06 10:08 55.59310 12.71252 10490 ft 310 kts 256°
2026-05-06 10:09 55.58770 12.67443 10675 ft 329 kts 256°
2026-05-06 10:09 55.58191 12.63438 11092 ft 341 kts 255°
2026-05-06 10:09 55.57588 12.59368 11753 ft 343 kts 255°
2026-05-06 10:09 55.56976 12.55332 12405 ft 346 kts 255°
2026-05-06 10:10 55.56333 12.51167 13138 ft 348 kts 255°
2026-05-06 10:10 55.55691 12.47030 13818 ft 350 kts 254°
2026-05-06 10:10 55.55035 12.42865 14429 ft 354 kts 254°
2026-05-06 10:10 55.54368 12.38657 15022 ft 357 kts 254°
2026-05-06 10:11 55.53692 12.34418 15649 ft 360 kts 254°
2026-05-06 10:11 55.53019 12.30215 16343 ft 361 kts 254°
2026-05-06 10:11 55.52334 12.25952 17040 ft 362 kts 254°
2026-05-06 10:11 55.51633 12.21603 17657 ft 366 kts 254°
2026-05-06 10:12 55.50933 12.17266 18267 ft 369 kts 254°
2026-05-06 10:12 55.50236 12.12963 18795 ft 371 kts 253°
2026-05-06 10:12 55.49523 12.08572 19354 ft 373 kts 253°
2026-05-06 10:12 55.48806 12.04164 19899 ft 375 kts 253°
2026-05-06 10:13 55.48083 11.99735 20432 ft 378 kts 253°
2026-05-06 10:13 55.47352 11.95273 20952 ft 380 kts 253°
2026-05-06 10:13 55.46615 11.90780 21459 ft 383 kts 253°